SL-8 R/B

Satellite information

Favourite Embed

Satellite Type and Status

ROCKET BODYIN ORBIT

Key statistics

Satellite SL-8 R/B at a glance.

Uptime

15827

Days in orbit

Revolutions

≈ 14.4

Per day

Orbit

LEO

Low Earth Orbit

Inclination

74.0

Latest

Satellite identification and parameters

Extended collection of information and parameters for SL-8 R/B.

Object identification

Identified? True

Debris? False

Object name: SL-8 R/B

International designator: 1982-001B

Object number (NORAD): 13028

Object ID (CCSDS): 13028

Country: COMMONWEALTH OF INDEPENDENT STATES (CIS)

Current information (Y/N): Y

RCS size: LARGE

Orbital parameters

Period: 100.024 minutes

Inclination: 74.0383 deg

SMA: 7137.774 km

Apoapsis: 773.918 km

Periapsis: 745.36 km

RAAN: 118.1142 deg

Eccentricy: 0.0020005

Argument of periapsis: 211.4504 deg

Mean anomaly: 148.5456 deg

Mean motion: 14.39655507 rev/day

Mean motion (dot): 0.00000251 rev/day2

B* drag term: 0.000088397 1/REarth

Two-line elements (TLE)

Creation date: May 8, 2025, 3:01 a.m.

Reference frame: TEME

Reference center: EARTH

Epoch: May 7, 2025, 4:49 p.m. UTC

TLE line 0: 0 SL-8 R/B

TLE line 1: 1 13028U 82001B 25127.70080513 .00000251 00000-0 88397-4 0 9993

TLE line 2: 2 13028 74.0383 118.1142 0020005 211.4504 148.5456 14.39655507271236

Live tracking on map

Real-time ground track for satellite SL-8 R/B.

In-orbit conjunctions

A list of the most updated potential collisions computed for object SL-8 R/B.

Target Orbit TCA Probability of collision Miss distance Type
COSMOS 1818 COOLANT LEO 2025-04-15 16:44:28 0.001061815 311.0 (m) DEBRIS
COSMOS 1818 COOLANT LEO 2025-04-15 08:24:11 0.001006052 612.0 (m) DEBRIS
DELTA 1 DEB SSO 2025-02-06 17:25:05 0.0003829527 637.0 (m) DEBRIS
FENGYUN 1C DEB SSO 2024-09-16 04:08:29 0.0005475273 383.0 (m) DEBRIS
COSMOS 2251 DEB LEO 2024-07-11 11:34:35 0.000193698 585.0 (m) DEBRIS

Associated space launch

Military communications satellite

SL-8 R/B was lifted into orbit during the mission ‘Kosmos-3M | Strela-2M 26’, on board a Kosmos-3M space rocket.

The launch took place on Jan. 7, 1982, 3:38 p.m. from 132/2.

For more information about the launch, click the button.

Launch to space Kosmos-3M | Strela-2M 26
Kosmos-3M | Strela-2M 26

Agency: N/A

Status: Launch Successful

Launch date: Jan. 7, 1982, 3:38 p.m. UTC

Rocket: Kosmos-3M

Launch pad: 132/2

Location: Plesetsk Cosmodrome, Russian Federation

...

Latest news about this satellite

There are no fresh news available about this satellite. Check back as we update our databases every day.


Newsletter sign-up

Weekly statistics, charts and insights to help you stay on top of the space industry.